contact:dominique.lefevre@mio.osupytheas.fr, maurice.libes@osupytheas.fr, didier.mallarino@osupytheas.fr
Project:EMSO http://www.emso-fr.org/EMSO-France
Depth: 2436.0 m
Title:EMSO Ligure Ouest : Data MII capteur MICROCAT
DateTime_Computer,Latitude,Longitude,Temperature,Conductivity,Pressure,DateTime_Instrument
DateTime_Computer,Latitude,Longitude,degC,S m-1,dbar,DateTime_Instrument
2023-08-31T00:00:19Z,42.805,6.029,13.3032,4.60093,2470.73,2023-8-31T02:02:39Z
2023-08-31T00:03:22Z,42.805,6.029,13.3031,4.60092,2470.693,2023-8-31T02:05:42Z
2023-08-31T00:06:25Z,42.805,6.029,13.3032,4.60091,2470.73,2023-8-31T02:08:45Z
2023-08-31T00:09:28Z,42.805,6.029,13.3033,4.60093,2470.73,2023-8-31T02:11:49Z
2023-08-31T00:12:31Z,42.805,6.029,13.3029,4.60092,2470.707,2023-8-31T02:14:52Z
2023-08-31T00:15:34Z,42.805,6.029,13.3031,4.60092,2470.707,2023-8-31T02:17:55Z
2023-08-31T00:18:37Z,42.805,6.029,13.3031,4.60096,2470.717,2023-8-31T02:20:58Z
2023-08-31T00:21:40Z,42.805,6.029,13.3030,4.60095,2470.707,2023-8-31T02:24:01Z
2023-08-31T00:24:43Z,42.805,6.029,13.3031,4.60096,2470.693,2023-8-31T02:27:04Z
2023-08-31T00:27:46Z,42.805,6.029,13.3031,4.60094,2470.693,2023-8-31T02:30:07Z
2023-08-31T00:30:49Z,42.805,6.029,13.3029,4.60095,2470.684,2023-8-31T02:33:10Z
2023-08-31T00:33:52Z,42.805,6.029,13.3029,4.60094,2470.693,2023-8-31T02:36:13Z
2023-08-31T00:36:56Z,42.805,6.029,13.3031,4.60094,2470.693,2023-8-31T02:39:16Z
2023-08-31T00:39:59Z,42.805,6.029,13.3032,4.60093,2470.67,2023-8-31T02:42:19Z
2023-08-31T00:43:02Z,42.805,6.029,13.3032,4.60092,2470.684,2023-8-31T02:45:22Z
2023-08-31T00:46:05Z,42.805,6.029,13.3032,4.60095,2470.684,2023-8-31T02:48:25Z
2023-08-31T00:49:08Z,42.805,6.029,13.3029,4.60092,2470.693,2023-8-31T02:51:29Z
2023-08-31T00:52:11Z,42.805,6.029,13.3033,4.60094,2470.67,2023-8-31T02:54:32Z
2023-08-31T00:55:14Z,42.805,6.029,13.3032,4.60092,2470.656,2023-8-31T02:57:35Z
2023-08-31T00:58:17Z,42.805,6.029,13.3032,4.60094,2470.67,2023-8-31T03:00:38Z
2023-08-31T01:01:20Z,42.805,6.029,13.3034,4.60095,2470.67,2023-8-31T03:03:41Z
2023-08-31T01:04:23Z,42.805,6.029,13.3031,4.60094,2470.684,2023-8-31T03:06:44Z
2023-08-31T01:07:26Z,42.805,6.029,13.3032,4.60094,2470.684,2023-8-31T03:09:47Z
2023-08-31T01:10:29Z,42.805,6.029,13.3031,4.60092,2470.646,2023-8-31T03:12:50Z
2023-08-31T01:13:33Z,42.805,6.029,13.3036,4.60093,2470.67,2023-8-31T03:15:53Z
2023-08-31T01:16:36Z,42.805,6.029,13.3031,4.60094,2470.693,2023-8-31T03:18:56Z
2023-08-31T01:19:39Z,42.805,6.029,13.3031,4.60092,2470.67,2023-8-31T03:21:59Z
2023-08-31T01:22:42Z,42.805,6.029,13.3034,4.60095,2470.67,2023-8-31T03:25:02Z
2023-08-31T01:25:45Z,42.805,6.029,13.3033,4.60092,2470.67,2023-8-31T03:28:05Z
2023-08-31T01:28:48Z,42.805,6.029,13.3031,4.60092,2470.646,2023-8-31T03:31:09Z
2023-08-31T01:31:51Z,42.805,6.029,13.3032,4.60094,2470.6,2023-8-31T03:34:12Z
2023-08-31T01:34:54Z,42.805,6.029,13.3034,4.60093,2470.684,2023-8-31T03:37:15Z
2023-08-31T01:37:57Z,42.805,6.029,13.3032,4.60095,2470.646,2023-8-31T03:40:18Z
2023-08-31T01:41:00Z,42.805,6.029,13.3032,4.60092,2470.646,2023-8-31T03:43:21Z
2023-08-31T01:44:03Z,42.805,6.029,13.3034,4.60092,2470.646,2023-8-31T03:46:24Z
2023-08-31T01:47:06Z,42.805,6.029,13.3034,4.60092,2470.67,2023-8-31T03:49:27Z
2023-08-31T01:50:09Z,42.805,6.029,13.3029,4.60094,2470.67,2023-8-31T03:52:30Z
2023-08-31T01:53:13Z,42.805,6.029,13.3030,4.60093,2470.646,2023-8-31T03:55:33Z
2023-08-31T01:56:16Z,42.805,6.029,13.3032,4.60092,2470.646,2023-8-31T03:58:36Z
2023-08-31T01:59:19Z,42.805,6.029,13.3033,4.60094,2470.646,2023-8-31T04:01:39Z
2023-08-31T02:02:22Z,42.805,6.029,13.3034,4.60094,2470.661,2023-8-31T04:04:42Z
2023-08-31T02:05:25Z,42.805,6.029,13.3031,4.60092,2470.637,2023-8-31T04:07:46Z
2023-08-31T02:08:28Z,42.805,6.029,13.3033,4.60091,2470.646,2023-8-31T04:10:49Z
2023-08-31T02:11:31Z,42.805,6.029,13.3033,4.60092,2470.624,2023-8-31T04:13:52Z
2023-08-31T02:14:34Z,42.805,6.029,13.3033,4.60096,2470.661,2023-8-31T04:16:55Z
2023-08-31T02:17:37Z,42.805,6.029,13.3032,4.60092,2470.646,2023-8-31T04:19:58Z
2023-08-31T02:20:40Z,42.805,6.029,13.3032,4.60091,2470.624,2023-8-31T04:23:01Z
2023-08-31T02:23:43Z,42.805,6.029,13.3037,4.60092,2470.67,2023-8-31T04:26:04Z
2023-08-31T02:26:46Z,42.805,6.029,13.3032,4.60101,2470.646,2023-8-31T04:29:07Z
2023-08-31T02:29:50Z,42.805,6.029,13.3037,4.60092,2470.646,2023-8-31T04:32:10Z
2023-08-31T02:32:53Z,42.805,6.029,13.3033,4.60095,2470.646,2023-8-31T04:35:13Z
2023-08-31T02:35:56Z,42.805,6.029,13.3031,4.60093,2470.67,2023-8-31T04:38:16Z
2023-08-31T02:38:59Z,42.805,6.029,13.3031,4.60092,2470.661,2023-8-31T04:41:19Z
2023-08-31T02:42:02Z,42.805,6.029,13.3032,4.60093,2470.646,2023-8-31T04:44:23Z
2023-08-31T02:45:05Z,42.805,6.029,13.3033,4.60092,2470.646,2023-8-31T04:47:26Z
2023-08-31T02:48:08Z,42.805,6.029,13.3032,4.60094,2470.624,2023-8-31T04:50:29Z
2023-08-31T02:51:11Z,42.805,6.029,13.3031,4.60096,2470.624,2023-8-31T04:53:32Z
2023-08-31T02:54:14Z,42.805,6.029,13.3034,4.60092,2470.67,2023-8-31T04:56:35Z
2023-08-31T02:57:17Z,42.805,6.029,13.3034,4.60092,2470.67,2023-8-31T04:59:38Z
2023-08-31T03:00:20Z,42.805,6.029,13.3031,4.60094,2470.684,2023-8-31T05:02:41Z
2023-08-31T03:03:23Z,42.805,6.029,13.3032,4.60093,2470.646,2023-8-31T05:05:44Z
2023-08-31T03:06:27Z,42.805,6.029,13.3031,4.60097,2470.67,2023-8-31T05:08:47Z
2023-08-31T03:09:30Z,42.805,6.029,13.3031,4.60094,2470.684,2023-8-31T05:11:50Z
2023-08-31T03:12:33Z,42.805,6.029,13.3031,4.60096,2470.67,2023-8-31T05:14:53Z
2023-08-31T03:15:36Z,42.805,6.029,13.3032,4.60095,2470.646,2023-8-31T05:17:56Z
2023-08-31T03:18:39Z,42.805,6.029,13.3030,4.60094,2470.684,2023-8-31T05:21:00Z
2023-08-31T03:21:42Z,42.805,6.029,13.3034,4.60092,2470.661,2023-8-31T05:24:03Z
2023-08-31T03:24:45Z,42.805,6.029,13.3032,4.60096,2470.684,2023-8-31T05:27:06Z
2023-08-31T03:27:48Z,42.805,6.029,13.3029,4.60092,2470.693,2023-8-31T05:30:09Z
2023-08-31T03:30:51Z,42.805,6.029,13.3034,4.60092,2470.67,2023-8-31T05:33:12Z
2023-08-31T03:33:54Z,42.805,6.029,13.3029,4.60093,2470.693,2023-8-31T05:36:15Z
2023-08-31T03:36:57Z,42.805,6.029,13.3031,4.60092,2470.684,2023-8-31T05:39:18Z
2023-08-31T03:40:00Z,42.805,6.029,13.3033,4.60094,2470.684,2023-8-31T05:42:21Z
2023-08-31T03:43:03Z,42.805,6.029,13.3029,4.60092,2470.707,2023-8-31T05:45:24Z
2023-08-31T03:46:07Z,42.805,6.029,13.3031,4.60093,2470.693,2023-8-31T05:48:27Z
2023-08-31T03:49:10Z,42.805,6.029,13.3034,4.60095,2470.693,2023-8-31T05:51:30Z
2023-08-31T03:52:13Z,42.805,6.029,13.3034,4.60097,2470.67,2023-8-31T05:54:33Z
2023-08-31T03:55:16Z,42.805,6.029,13.3034,4.60092,2470.693,2023-8-31T05:57:37Z
2023-08-31T03:58:19Z,42.805,6.029,13.3031,4.60093,2470.693,2023-8-31T06:00:40Z
2023-08-31T04:01:22Z,42.805,6.029,13.3032,4.60092,2470.717,2023-8-31T06:03:43Z
2023-08-31T04:04:25Z,42.805,6.029,13.3038,4.60092,2470.717,2023-8-31T06:06:46Z
2023-08-31T04:07:28Z,42.805,6.029,13.3036,4.60097,2470.726,2023-8-31T06:09:49Z
2023-08-31T04:10:31Z,42.805,6.029,13.3034,4.60093,2470.754,2023-8-31T06:12:52Z
2023-08-31T04:13:34Z,42.805,6.029,13.3034,4.60097,2470.73,2023-8-31T06:15:55Z
2023-08-31T04:16:37Z,42.805,6.029,13.3031,4.60093,2470.693,2023-8-31T06:18:58Z
2023-08-31T04:19:40Z,42.805,6.029,13.3034,4.60091,2470.777,2023-8-31T06:22:01Z
2023-08-31T04:22:44Z,42.805,6.029,13.3031,4.60092,2470.717,2023-8-31T06:25:04Z
2023-08-31T04:25:47Z,42.805,6.029,13.3031,4.60090,2470.754,2023-8-31T06:28:07Z
2023-08-31T04:28:50Z,42.805,6.029,13.3034,4.60091,2470.73,2023-8-31T06:31:10Z
2023-08-31T04:31:53Z,42.805,6.029,13.3038,4.60092,2470.717,2023-8-31T06:34:13Z
2023-08-31T04:34:56Z,42.805,6.029,13.3030,4.60092,2470.74,2023-8-31T06:37:17Z
2023-08-31T04:37:59Z,42.805,6.029,13.3029,4.60092,2470.777,2023-8-31T06:40:20Z
2023-08-31T04:41:02Z,42.805,6.029,13.3031,4.60094,2470.74,2023-8-31T06:43:23Z
2023-08-31T04:44:05Z,42.805,6.029,13.3031,4.60092,2470.717,2023-8-31T06:46:26Z
2023-08-31T04:47:08Z,42.805,6.029,13.3033,4.60092,2470.73,2023-8-31T06:49:29Z
2023-08-31T04:50:11Z,42.805,6.029,13.3034,4.60092,2470.74,2023-8-31T06:52:32Z
2023-08-31T04:53:14Z,42.805,6.029,13.3031,4.60094,2470.763,2023-8-31T06:55:35Z
2023-08-31T04:56:17Z,42.805,6.029,13.3033,4.60092,2470.777,2023-8-31T06:58:38Z
2023-08-31T04:59:21Z,42.805,6.029,13.3031,4.60092,2470.763,2023-8-31T07:01:41Z
2023-08-31T05:02:24Z,42.805,6.029,13.3034,4.60092,2470.74,2023-8-31T07:04:44Z
2023-08-31T05:05:27Z,42.805,6.029,13.3031,4.60093,2470.787,2023-8-31T07:07:47Z
2023-08-31T05:08:30Z,42.805,6.029,13.3033,4.60092,2470.74,2023-8-31T07:10:50Z
2023-08-31T05:11:33Z,42.805,6.029,13.3034,4.60092,2470.763,2023-8-31T07:13:54Z
2023-08-31T05:14:36Z,42.805,6.029,13.3030,4.60097,2470.763,2023-8-31T07:16:57Z
2023-08-31T05:17:39Z,42.805,6.029,13.3034,4.60092,2470.74,2023-8-31T07:20:00Z
2023-08-31T05:20:42Z,42.805,6.029,13.3033,4.60092,2470.787,2023-8-31T07:23:03Z
2023-08-31T05:23:45Z,42.805,6.029,13.3031,4.60092,2470.763,2023-8-31T07:26:06Z
2023-08-31T05:26:48Z,42.805,6.029,13.3032,4.60097,2470.8,2023-8-31T07:29:09Z
2023-08-31T05:29:51Z,42.805,6.029,13.3030,4.60093,2470.8,2023-8-31T07:32:12Z
2023-08-31T05:32:54Z,42.805,6.029,13.3030,4.60095,2470.763,2023-8-31T07:35:15Z
2023-08-31T05:35:57Z,42.805,6.029,13.3036,4.60092,2470.81,2023-8-31T07:38:18Z
2023-08-31T05:39:01Z,42.805,6.029,13.3033,4.60097,2470.8,2023-8-31T07:41:21Z
2023-08-31T05:42:04Z,42.805,6.029,13.3030,4.60093,2470.787,2023-8-31T07:44:24Z
2023-08-31T05:45:07Z,42.805,6.029,13.3030,4.60093,2470.81,2023-8-31T07:47:27Z
2023-08-31T05:48:10Z,42.805,6.029,13.3032,4.60092,2470.824,2023-8-31T07:50:30Z
2023-08-31T05:51:13Z,42.805,6.029,13.3031,4.60094,2470.763,2023-8-31T07:53:34Z
2023-08-31T05:54:16Z,42.805,6.029,13.3033,4.60092,2470.763,2023-8-31T07:56:37Z
2023-08-31T05:57:19Z,42.805,6.029,13.3032,4.60092,2470.81,2023-8-31T07:59:40Z
2023-08-31T06:00:22Z,42.805,6.029,13.3033,4.60097,2470.81,2023-8-31T08:02:43Z
2023-08-31T06:03:25Z,42.805,6.029,13.3032,4.60092,2470.81,2023-8-31T08:05:46Z
2023-08-31T06:06:28Z,42.805,6.029,13.3029,4.60093,2470.787,2023-8-31T08:08:49Z
2023-08-31T06:09:31Z,42.805,6.029,13.3032,4.60092,2470.824,2023-8-31T08:11:52Z
2023-08-31T06:12:34Z,42.805,6.029,13.3031,4.60094,2470.81,2023-8-31T08:14:55Z
2023-08-31T06:15:38Z,42.805,6.029,13.3031,4.60097,2470.81,2023-8-31T08:17:58Z
2023-08-31T06:18:41Z,42.805,6.029,13.3030,4.60097,2470.833,2023-8-31T08:21:01Z
2023-08-31T06:21:44Z,42.805,6.029,13.3036,4.60094,2470.787,2023-8-31T08:24:04Z
2023-08-31T06:24:47Z,42.805,6.029,13.3031,4.60097,2470.833,2023-8-31T08:27:07Z
2023-08-31T06:27:50Z,42.805,6.029,13.3030,4.60092,2470.787,2023-8-31T08:30:11Z
2023-08-31T06:30:53Z,42.805,6.029,13.3031,4.60092,2470.81,2023-8-31T08:33:14Z
2023-08-31T06:33:56Z,42.805,6.029,13.3031,4.60092,2470.833,2023-8-31T08:36:17Z
2023-08-31T06:36:59Z,42.805,6.029,13.3027,4.60098,2470.81,2023-8-31T08:39:20Z
2023-08-31T06:40:02Z,42.805,6.029,13.3030,4.60095,2470.81,2023-8-31T08:42:23Z
2023-08-31T06:43:05Z,42.805,6.029,13.3029,4.60096,2470.833,2023-8-31T08:45:26Z
2023-08-31T06:46:08Z,42.805,6.029,13.3031,4.60092,2470.81,2023-8-31T08:48:29Z
2023-08-31T06:49:11Z,42.805,6.029,13.3034,4.60094,2470.847,2023-8-31T08:51:32Z
2023-08-31T06:52:14Z,42.805,6.029,13.3029,4.60094,2470.833,2023-8-31T08:54:35Z
2023-08-31T06:55:18Z,42.805,6.029,13.3036,4.60091,2470.833,2023-8-31T08:57:38Z
2023-08-31T06:58:21Z,42.805,6.029,13.3036,4.60094,2470.833,2023-8-31T09:00:41Z
2023-08-31T07:01:24Z,42.805,6.029,13.3036,4.60094,2470.857,2023-8-31T09:03:44Z
2023-08-31T07:04:27Z,42.805,6.029,13.3032,4.60092,2470.81,2023-8-31T09:06:47Z
2023-08-31T07:07:30Z,42.805,6.029,13.3031,4.60095,2470.871,2023-8-31T09:09:51Z
2023-08-31T07:10:33Z,42.805,6.029,13.3033,4.60093,2470.833,2023-8-31T09:12:54Z
2023-08-31T07:13:36Z,42.805,6.029,13.3031,4.60093,2470.824,2023-8-31T09:15:57Z
2023-08-31T07:16:39Z,42.805,6.029,13.3034,4.60097,2470.847,2023-8-31T09:19:00Z
2023-08-31T07:19:42Z,42.805,6.029,13.3036,4.60093,2470.81,2023-8-31T09:22:03Z
2023-08-31T07:22:45Z,42.805,6.029,13.3031,4.60092,2470.857,2023-8-31T09:25:06Z
2023-08-31T07:25:48Z,42.805,6.029,13.3031,4.60092,2470.847,2023-8-31T09:28:09Z
2023-08-31T07:28:51Z,42.805,6.029,13.3031,4.60092,2470.857,2023-8-31T09:31:12Z
2023-08-31T07:31:55Z,42.805,6.029,13.3031,4.60092,2470.824,2023-8-31T09:34:15Z
2023-08-31T07:34:58Z,42.805,6.029,13.3030,4.60097,2470.857,2023-8-31T09:37:18Z
2023-08-31T07:38:01Z,42.805,6.029,13.3034,4.60094,2470.81,2023-8-31T09:40:21Z
2023-08-31T07:41:04Z,42.805,6.029,13.3029,4.60096,2470.81,2023-8-31T09:43:24Z
2023-08-31T07:44:07Z,42.805,6.029,13.3033,4.60095,2470.857,2023-8-31T09:46:28Z
2023-08-31T07:47:10Z,42.805,6.029,13.3030,4.60091,2470.787,2023-8-31T09:49:31Z
2023-08-31T07:50:13Z,42.805,6.029,13.3034,4.60092,2470.787,2023-8-31T09:52:34Z
2023-08-31T07:53:16Z,42.805,6.029,13.3033,4.60093,2470.777,2023-8-31T09:55:37Z
2023-08-31T07:56:19Z,42.805,6.029,13.3036,4.60094,2470.857,2023-8-31T09:58:40Z
2023-08-31T07:59:22Z,42.805,6.029,13.3031,4.60092,2470.81,2023-8-31T10:01:43Z
2023-08-31T08:02:25Z,42.805,6.029,13.3033,4.60096,2470.824,2023-8-31T10:04:46Z
2023-08-31T08:05:28Z,42.805,6.029,13.3030,4.60092,2470.833,2023-8-31T10:07:49Z
2023-08-31T08:08:32Z,42.805,6.029,13.3031,4.60096,2470.847,2023-8-31T10:10:52Z
2023-08-31T08:11:35Z,42.805,6.029,13.3032,4.60097,2470.833,2023-8-31T10:13:55Z
2023-08-31T08:14:38Z,42.805,6.029,13.3031,4.60097,2470.833,2023-8-31T10:16:58Z
2023-08-31T08:17:41Z,42.805,6.029,13.3033,4.60098,2470.787,2023-8-31T10:20:01Z
2023-08-31T08:20:44Z,42.805,6.029,13.3031,4.60091,2470.833,2023-8-31T10:23:05Z
2023-08-31T08:23:47Z,42.805,6.029,13.3031,4.60091,2470.833,2023-8-31T10:26:08Z
2023-08-31T08:26:50Z,42.805,6.029,13.3031,4.60091,2470.81,2023-8-31T10:29:11Z
2023-08-31T08:29:53Z,42.805,6.029,13.3030,4.60092,2470.81,2023-8-31T10:32:14Z
2023-08-31T08:32:55Z,42.805,6.029,13.3029,4.60093,2470.81,2023-8-31T10:35:16Z
2023-08-31T08:35:58Z,42.805,6.029,13.3032,4.60096,2470.81,2023-8-31T10:38:19Z
2023-08-31T08:39:01Z,42.805,6.029,13.3035,4.60091,2470.81,2023-8-31T10:41:22Z
2023-08-31T08:42:04Z,42.805,6.029,13.3030,4.60094,2470.8,2023-8-31T10:44:25Z
2023-08-31T08:45:07Z,42.805,6.029,13.3029,4.60091,2470.824,2023-8-31T10:47:28Z
2023-08-31T08:48:10Z,42.805,6.029,13.3033,4.60091,2470.773,2023-8-31T10:50:31Z
2023-08-31T08:51:14Z,42.805,6.029,13.3031,4.60092,2470.787,2023-8-31T10:53:34Z
2023-08-31T08:54:17Z,42.805,6.029,13.3029,4.60093,2470.81,2023-8-31T10:56:37Z
2023-08-31T08:57:20Z,42.805,6.029,13.3034,4.60092,2470.833,2023-8-31T10:59:40Z
2023-08-31T09:00:23Z,42.805,6.029,13.3031,4.60091,2470.787,2023-8-31T11:02:43Z
2023-08-31T09:03:26Z,42.805,6.029,13.3032,4.60091,2470.763,2023-8-31T11:05:47Z
2023-08-31T09:06:29Z,42.805,6.029,13.3033,4.60094,2470.81,2023-8-31T11:08:50Z
2023-08-31T09:09:32Z,42.805,6.029,13.3029,4.60092,2470.787,2023-8-31T11:11:53Z
2023-08-31T09:12:35Z,42.805,6.029,13.3029,4.60093,2470.787,2023-8-31T11:14:56Z
2023-08-31T09:15:38Z,42.805,6.029,13.3029,4.60091,2470.777,2023-8-31T11:17:59Z
2023-08-31T09:18:41Z,42.805,6.029,13.3027,4.60106,2470.754,2023-8-31T11:21:02Z
2023-08-31T09:21:44Z,42.805,6.029,13.3032,4.60091,2470.787,2023-8-31T11:24:05Z
2023-08-31T09:24:47Z,42.805,6.029,13.3029,4.60090,2470.763,2023-8-31T11:27:08Z
2023-08-31T09:27:51Z,42.805,6.029,13.3027,4.60090,2470.763,2023-8-31T11:30:11Z
2023-08-31T09:30:54Z,42.805,6.029,13.3029,4.60094,2470.763,2023-8-31T11:33:14Z
2023-08-31T09:33:57Z,42.805,6.029,13.3027,4.60090,2470.787,2023-8-31T11:36:17Z
2023-08-31T09:37:00Z,42.805,6.029,13.3033,4.60092,2470.754,2023-8-31T11:39:20Z
2023-08-31T09:40:03Z,42.805,6.029,13.3033,4.60091,2470.754,2023-8-31T11:42:24Z
2023-08-31T09:43:06Z,42.805,6.029,13.3029,4.60090,2470.763,2023-8-31T11:45:27Z
2023-08-31T09:46:09Z,42.805,6.029,13.3029,4.60097,2470.763,2023-8-31T11:48:30Z
2023-08-31T09:49:12Z,42.805,6.029,13.3029,4.60090,2470.777,2023-8-31T11:51:33Z
2023-08-31T09:52:15Z,42.805,6.029,13.3031,4.60097,2470.763,2023-8-31T11:54:36Z
2023-08-31T09:55:18Z,42.805,6.029,13.3029,4.60091,2470.74,2023-8-31T11:57:39Z
2023-08-31T09:58:21Z,42.805,6.029,13.3031,4.60089,2470.74,2023-8-31T12:00:42Z
2023-08-31T10:01:25Z,42.805,6.029,13.3029,4.60090,2470.763,2023-8-31T12:03:45Z
2023-08-31T10:04:28Z,42.805,6.029,13.3030,4.60092,2470.754,2023-8-31T12:06:48Z
2023-08-31T10:07:31Z,42.805,6.029,13.3030,4.60092,2470.763,2023-8-31T12:09:51Z
2023-08-31T10:10:34Z,42.805,6.029,13.3029,4.60092,2470.74,2023-8-31T12:12:54Z
2023-08-31T10:13:37Z,42.805,6.029,13.3029,4.60090,2470.74,2023-8-31T12:15:58Z
2023-08-31T10:16:40Z,42.805,6.029,13.3030,4.60091,2470.74,2023-8-31T12:19:01Z
2023-08-31T10:19:43Z,42.805,6.029,13.3032,4.60092,2470.74,2023-8-31T12:22:04Z
2023-08-31T10:22:46Z,42.805,6.029,13.3031,4.60094,2470.74,2023-8-31T12:25:07Z
2023-08-31T10:25:49Z,42.805,6.029,13.3032,4.60097,2470.74,2023-8-31T12:28:10Z
2023-08-31T10:28:52Z,42.805,6.029,13.3030,4.60093,2470.717,2023-8-31T12:31:13Z
2023-08-31T10:31:54Z,42.805,6.029,13.3031,4.60098,2470.74,2023-8-31T12:34:14Z
2023-08-31T10:34:57Z,42.805,6.029,13.3031,4.60090,2470.74,2023-8-31T12:37:17Z
2023-08-31T10:38:00Z,42.805,6.029,13.3031,4.60091,2470.74,2023-8-31T12:40:20Z
2023-08-31T10:41:03Z,42.805,6.029,13.3031,4.60090,2470.717,2023-8-31T12:43:24Z
2023-08-31T10:44:06Z,42.805,6.029,13.3035,4.60091,2470.717,2023-8-31T12:46:27Z
2023-08-31T10:47:09Z,42.805,6.029,13.3032,4.60093,2470.693,2023-8-31T12:49:30Z
2023-08-31T10:50:12Z,42.805,6.029,13.3029,4.60092,2470.717,2023-8-31T12:52:33Z
2023-08-31T10:53:15Z,42.805,6.029,13.3031,4.60090,2470.74,2023-8-31T12:55:36Z
2023-08-31T10:56:18Z,42.805,6.029,13.3030,4.60092,2470.73,2023-8-31T12:58:39Z
2023-08-31T10:59:21Z,42.805,6.029,13.3031,4.60097,2470.693,2023-8-31T13:01:42Z
2023-08-31T11:02:24Z,42.805,6.029,13.3028,4.60091,2470.717,2023-8-31T13:04:45Z
2023-08-31T11:05:28Z,42.805,6.029,13.3030,4.60090,2470.717,2023-8-31T13:07:48Z
2023-08-31T11:08:31Z,42.805,6.029,13.3034,4.60091,2470.707,2023-8-31T13:10:51Z
2023-08-31T11:11:34Z,42.805,6.029,13.3039,4.60091,2470.693,2023-8-31T13:13:54Z
2023-08-31T11:14:37Z,42.805,6.029,13.3034,4.60092,2470.74,2023-8-31T13:16:58Z
2023-08-31T11:17:40Z,42.805,6.029,13.3032,4.60094,2470.693,2023-8-31T13:20:01Z
2023-08-31T11:20:43Z,42.805,6.029,13.3033,4.60092,2470.707,2023-8-31T13:23:04Z
2023-08-31T11:23:46Z,42.805,6.029,13.3030,4.60093,2470.693,2023-8-31T13:26:07Z
2023-08-31T11:26:49Z,42.805,6.029,13.3031,4.60094,2470.684,2023-8-31T13:29:10Z
2023-08-31T11:29:52Z,42.805,6.029,13.3033,4.60092,2470.67,2023-8-31T13:32:13Z
2023-08-31T11:32:55Z,42.805,6.029,13.3032,4.60096,2470.717,2023-8-31T13:35:16Z
2023-08-31T11:35:58Z,42.805,6.029,13.3037,4.60092,2470.693,2023-8-31T13:38:19Z
2023-08-31T11:39:02Z,42.805,6.029,13.3038,4.60091,2470.67,2023-8-31T13:41:22Z
2023-08-31T11:42:05Z,42.805,6.029,13.3039,4.60092,2470.646,2023-8-31T13:44:25Z
2023-08-31T11:45:08Z,42.805,6.029,13.3036,4.60094,2470.67,2023-8-31T13:47:28Z
2023-08-31T11:48:11Z,42.805,6.029,13.3031,4.60093,2470.693,2023-8-31T13:50:31Z
2023-08-31T11:51:14Z,42.805,6.029,13.3026,4.60096,2470.693,2023-8-31T13:53:35Z
2023-08-31T11:54:17Z,42.805,6.029,13.3028,4.60093,2470.693,2023-8-31T13:56:38Z
2023-08-31T11:57:20Z,42.805,6.029,13.3032,4.60093,2470.646,2023-8-31T13:59:41Z
2023-08-31T12:00:23Z,42.805,6.029,13.3027,4.60092,2470.707,2023-8-31T14:02:44Z
2023-08-31T12:03:26Z,42.805,6.029,13.3029,4.60092,2470.67,2023-8-31T14:05:47Z
2023-08-31T12:06:29Z,42.805,6.029,13.3032,4.60092,2470.661,2023-8-31T14:08:50Z
2023-08-31T12:09:32Z,42.805,6.029,13.3031,4.60092,2470.684,2023-8-31T14:11:53Z
2023-08-31T12:12:35Z,42.805,6.029,13.3028,4.60097,2470.684,2023-8-31T14:14:56Z
2023-08-31T12:15:39Z,42.805,6.029,13.3028,4.60094,2470.637,2023-8-31T14:17:59Z
2023-08-31T12:18:42Z,42.805,6.029,13.3030,4.60093,2470.707,2023-8-31T14:21:02Z
2023-08-31T12:21:45Z,42.805,6.029,13.3028,4.60092,2470.67,2023-8-31T14:24:05Z
2023-08-31T12:24:48Z,42.805,6.029,13.3034,4.60093,2470.656,2023-8-31T14:27:09Z
2023-08-31T12:27:51Z,42.805,6.029,13.3029,4.60098,2470.661,2023-8-31T14:30:12Z
2023-08-31T12:30:54Z,42.805,6.029,13.3030,4.60093,2470.624,2023-8-31T14:33:15Z
2023-08-31T12:33:57Z,42.805,6.029,13.3031,4.60102,2470.661,2023-8-31T14:36:18Z
2023-08-31T12:37:00Z,42.805,6.029,13.3029,4.60099,2470.646,2023-8-31T14:39:21Z
2023-08-31T12:40:03Z,42.805,6.029,13.3031,4.60097,2470.646,2023-8-31T14:42:24Z
2023-08-31T12:43:06Z,42.805,6.029,13.3034,4.60102,2470.661,2023-8-31T14:45:27Z
2023-08-31T12:46:09Z,42.805,6.029,13.3030,4.60102,2470.661,2023-8-31T14:48:30Z
2023-08-31T12:49:13Z,42.805,6.029,13.3031,4.60095,2470.67,2023-8-31T14:51:33Z
2023-08-31T12:52:16Z,42.805,6.029,13.3028,4.60097,2470.624,2023-8-31T14:54:36Z
2023-08-31T12:55:19Z,42.805,6.029,13.3029,4.60099,2470.624,2023-8-31T14:57:39Z
2023-08-31T12:58:22Z,42.805,6.029,13.3031,4.60099,2470.624,2023-8-31T15:00:42Z
2023-08-31T13:01:25Z,42.805,6.029,13.3032,4.60098,2470.637,2023-8-31T15:03:46Z
2023-08-31T13:04:28Z,42.805,6.029,13.3030,4.60098,2470.637,2023-8-31T15:06:49Z
2023-08-31T13:07:31Z,42.805,6.029,13.3030,4.60098,2470.646,2023-8-31T15:09:52Z
2023-08-31T13:10:34Z,42.805,6.029,13.3031,4.60098,2470.646,2023-8-31T15:12:55Z
2023-08-31T13:13:37Z,42.805,6.029,13.3030,4.60094,2470.624,2023-8-31T15:15:58Z
2023-08-31T13:16:40Z,42.805,6.029,13.3030,4.60092,2470.661,2023-8-31T15:19:01Z
2023-08-31T13:19:43Z,42.805,6.029,13.3031,4.60097,2470.614,2023-8-31T15:22:04Z
2023-08-31T13:22:46Z,42.805,6.029,13.3034,4.60099,2470.661,2023-8-31T15:25:07Z
2023-08-31T13:25:50Z,42.805,6.029,13.3029,4.60097,2470.661,2023-8-31T15:28:10Z
2023-08-31T13:28:53Z,42.805,6.029,13.3033,4.60096,2470.6,2023-8-31T15:31:13Z
2023-08-31T13:31:56Z,42.805,6.029,13.3031,4.60099,2470.646,2023-8-31T15:34:16Z
2023-08-31T13:34:59Z,42.805,6.029,13.3031,4.60094,2470.637,2023-8-31T15:37:19Z
2023-08-31T13:38:02Z,42.805,6.029,13.3029,4.60099,2470.624,2023-8-31T15:40:23Z
2023-08-31T13:41:05Z,42.805,6.029,13.3029,4.60096,2470.624,2023-8-31T15:43:26Z
2023-08-31T13:44:08Z,42.805,6.029,13.3031,4.60095,2470.661,2023-8-31T15:46:29Z
2023-08-31T13:47:11Z,42.805,6.029,13.3031,4.60094,2470.624,2023-8-31T15:49:32Z
2023-08-31T13:50:14Z,42.805,6.029,13.3031,4.60096,2470.6,2023-8-31T15:52:35Z
2023-08-31T13:53:17Z,42.805,6.029,13.3033,4.60095,2470.661,2023-8-31T15:55:38Z
2023-08-31T13:56:20Z,42.805,6.029,13.3030,4.60093,2470.614,2023-8-31T15:58:41Z
2023-08-31T13:59:23Z,42.805,6.029,13.3031,4.60094,2470.637,2023-8-31T16:01:44Z
2023-08-31T14:02:27Z,42.805,6.029,13.3031,4.60092,2470.637,2023-8-31T16:04:47Z
2023-08-31T14:05:30Z,42.805,6.029,13.3031,4.60092,2470.637,2023-8-31T16:07:50Z
2023-08-31T14:08:33Z,42.805,6.029,13.3035,4.60092,2470.624,2023-8-31T16:10:53Z
2023-08-31T14:11:36Z,42.805,6.029,13.3029,4.60094,2470.624,2023-8-31T16:13:57Z
2023-08-31T14:14:39Z,42.805,6.029,13.3034,4.60093,2470.624,2023-8-31T16:17:00Z
2023-08-31T14:17:42Z,42.805,6.029,13.3029,4.60091,2470.637,2023-8-31T16:20:03Z
2023-08-31T14:20:45Z,42.805,6.029,13.3030,4.60093,2470.624,2023-8-31T16:23:06Z
2023-08-31T14:23:48Z,42.805,6.029,13.3031,4.60094,2470.661,2023-8-31T16:26:09Z
2023-08-31T14:26:51Z,42.805,6.029,13.3031,4.60092,2470.6,2023-8-31T16:29:12Z
2023-08-31T14:29:54Z,42.805,6.029,13.3031,4.60094,2470.61,2023-8-31T16:32:15Z
2023-08-31T14:32:57Z,42.805,6.029,13.3031,4.60092,2470.624,2023-8-31T16:35:18Z
2023-08-31T14:36:00Z,42.805,6.029,13.3029,4.60093,2470.624,2023-8-31T16:38:21Z
2023-08-31T14:39:04Z,42.805,6.029,13.3030,4.60097,2470.646,2023-8-31T16:41:24Z
2023-08-31T14:42:07Z,42.805,6.029,13.3027,4.60093,2470.624,2023-8-31T16:44:27Z
2023-08-31T14:45:10Z,42.805,6.029,13.3030,4.60093,2470.661,2023-8-31T16:47:30Z
2023-08-31T14:48:13Z,42.805,6.029,13.3031,4.60094,2470.646,2023-8-31T16:50:34Z
2023-08-31T14:51:16Z,42.805,6.029,13.3031,4.60092,2470.624,2023-8-31T16:53:37Z
2023-08-31T14:54:19Z,42.805,6.029,13.3027,4.60093,2470.661,2023-8-31T16:56:40Z
2023-08-31T14:57:22Z,42.805,6.029,13.3034,4.60093,2470.624,2023-8-31T16:59:43Z
2023-08-31T15:00:25Z,42.805,6.029,13.3027,4.60093,2470.67,2023-8-31T17:02:46Z
2023-08-31T15:03:28Z,42.805,6.029,13.3033,4.60093,2470.661,2023-8-31T17:05:49Z
2023-08-31T15:06:31Z,42.805,6.029,13.3029,4.60095,2470.646,2023-8-31T17:08:52Z
2023-08-31T15:09:34Z,42.805,6.029,13.3029,4.60095,2470.646,2023-8-31T17:11:55Z
2023-08-31T15:12:38Z,42.805,6.029,13.3033,4.60092,2470.67,2023-8-31T17:14:58Z